Moses Lake, Washington, United States (98837)
Lat: 47.13N, Lon: 119.28W
Wx Zone: WAZ034
Local Info
Past Weather Observations for Monday, October 20, 2014

NOTE: This archive is for the closest National Weather Service station to Moses Lake. Information may differ from the station used for current weather conditions.

Click here for Long-term Archive

Time Weather Temperature Dewpoint Humidity Pressure Winds Precip Visibility
23:52
Partly Cloudy
52°F / 11°C 48°F / 9°C 88% 29.8 in
(1009 mb)
S 10.4 mph
(S 17 kph)
- 10SM
22:52
Partly Cloudy
52°F / 11°C 48°F / 9°C 88% 29.8 in
(1009 mb)
S 15 mph
(S 24 kph)
- 10SM
22:20
Partly Cloudy
52°F / 11°C 48°F / 9°C 88% 29.8 in
(1009 mb)
S 17.3 mph
(S 28 kph)
- 10SM
21:52
Clear
52°F / 11°C 48°F / 9°C 88% 29.8 in
(1009 mb)
S 11.5 mph
(S 19 kph)
- 10SM
20:52
Partly Cloudy
54°F / 12°C 48°F / 9°C 82% 29.8 in
(1009 mb)
S 10.4 mph
(S 17 kph)
- 10SM
19:52
Clear
54°F / 12°C 50°F / 10°C 88% 29.8 in
(1009 mb)
S 10.4 mph
(S 17 kph)
0.04 in
(1.02 mm)
10SM
18:52
Overcast
Rain
55°F / 13°C 52°F / 11°C 88% 29.8 in
(1009 mb)
S 8.1 mph
(S 13 kph)
0.11 in
(2.79 mm)
6SM
17:52
Overcast
Rain
57°F / 14°C 54°F / 12°C 88% 29.8 in
(1009 mb)
SW 9.2 mph
(SW 15 kph)
0.05 in
(1.27 mm)
7SM
16:52
Overcast
61°F / 16°C 52°F / 11°C 72% 29.77 in
(1008 mb)
SSW 9.2 mph
(SSW 15 kph)
- 10SM
15:52
Overcast
Hazy
63°F / 17°C 50°F / 10°C 64% 29.74 in
(1007 mb)
W 10.4 mph
(W 17 kph)
- 5SM
14:52
Overcast
64°F / 18°C 52°F / 11°C 64% 29.74 in
(1007 mb)
W 10.4 mph
(W 17 kph)
- 10SM
13:52
Mostly Cloudy
66°F / 19°C 52°F / 11°C 60% 29.74 in
(1007 mb)
Calm - 10SM
12:52
Mostly Cloudy
64°F / 18°C 50°F / 10°C 60% 29.74 in
(1007 mb)
Variable 3.5 mph
(Variable 6 kph)
- 10SM
11:52
Partly Cloudy
63°F / 17°C 50°F / 10°C 64% 29.74 in
(1007 mb)
SE 6.9 mph
(SE 11 kph)
- 10SM
10:52
Mostly Cloudy
61°F / 16°C 48°F / 9°C 63% 29.74 in
(1007 mb)
Variable 3.5 mph
(Variable 6 kph)
- 10SM
09:52
Clear
59°F / 15°C 48°F / 9°C 68% 29.77 in
(1008 mb)
Calm - 10SM
08:52
Partly Cloudy
52°F / 11°C 45°F / 7°C 77% 29.74 in
(1007 mb)
SE 3.5 mph
(SE 6 kph)
- 10SM
07:52
Clear
46°F / 8°C 43°F / 6°C 87% 29.74 in
(1007 mb)
Calm - 8SM
06:52
Clear
45°F / 7°C 41°F / 5°C 87% 29.74 in
(1007 mb)
Calm - 10SM
05:52
Clear
43°F / 6°C 39°F / 4°C 87% 29.71 in
(1006 mb)
N 3.5 mph
(N 6 kph)
- 10SM
04:52
Clear
Fog And Mist
43°F / 6°C 39°F / 4°C 87% 29.71 in
(1006 mb)
NW 3.5 mph
(NW 6 kph)
- 3SM
04:36
Clear
Fog And Mist
43°F / 6°C 39°F / 4°C 87% 29.71 in
(1006 mb)
SSW 3.5 mph
(SSW 6 kph)
- 6SM
04:29
Clear
Fog And Mist
43°F / 6°C 39°F / 4°C 87% 29.71 in
(1006 mb)
Calm - 2 1/2SM
03:52
Clear
45°F / 7°C 41°F / 5°C 87% 29.71 in
(1006 mb)
NE 3.5 mph
(NE 6 kph)
- 8SM
02:52
Clear
Fog And Mist
45°F / 7°C 43°F / 6°C 93% 29.71 in
(1006 mb)
N 4.6 mph
(N 7 kph)
- 5SM
02:37
Clear
Fog And Mist
43°F / 6°C 41°F / 5°C 93% 29.71 in
(1006 mb)
N 8.1 mph
(N 13 kph)
- 4SM
02:28
Partly Cloudy
Fog And Mist
43°F / 6°C 41°F / 5°C 93% 29.71 in
(1006 mb)
NNW 5.8 mph
(NNW 9 kph)
- 2 1/2SM
01:52
Clear
45°F / 7°C 43°F / 6°C 93% 29.71 in
(1006 mb)
NNE 4.6 mph
(NNE 7 kph)
- 10SM
01:28
Clear
45°F / 7°C 43°F / 6°C 93% 29.71 in
(1006 mb)
NNE 5.8 mph
(NNE 9 kph)
- 7SM
01:16
Clear
Fog And Mist
45°F / 7°C 43°F / 6°C 93% 29.71 in
(1006 mb)
N 6.9 mph
(N 11 kph)
- 2 1/2SM
00:52
Clear
Fog And Mist
45°F / 7°C 43°F / 6°C 93% 29.71 in
(1006 mb)
N 6.9 mph
(N 11 kph)
- 6SM
00:45
Clear
Fog And Mist
43°F / 6°C 41°F / 5°C 93% 29.71 in
(1006 mb)
N 6.9 mph
(N 11 kph)
- 2 1/2SM
00:34
Clear
Fog And Mist
43°F / 6°C 41°F / 5°C 93% 29.71 in
(1006 mb)
N 4.6 mph
(N 7 kph)
- 4SM
00:27
Clear
Fog And Mist
45°F / 7°C 43°F / 6°C 93% 29.71 in
(1006 mb)
N 6.9 mph
(N 11 kph)
- 2 1/2SM
Time Weather Temperature Dewpoint Humidity Pressure Winds Precip Visibility


Weather for websites

WeatherForYou.com, LLC is not responsible for any damages or problems caused by this service. Current weather conditions are obtained from the closest station including government and personal stations which may have varying degrees of accuracy. Weather forecasts are derived from the NOAA NDFD. Like all things, this site belongs to Jesus Christ... He just trusts me to maintain it. If you have any questions or comments email webmaster@weatherforyou.com

Copyright © 2014, WeatherForYou.com LLC. All rights reserved.